Retour au catalogue

HULIANWANG DIGUI-91

ActifCommunicationsLEO
NORAD 65999·PAYLOAD·🇨🇳 China

Lancé Oct 16, 2025 depuis Wenchang Space Launch Site

Loading…

Prochains Passages (prochaines 24 heures)

TLE

FraisSource: Space-Track

Époque: Sep 14, 2026, 14:29 UTC

1 65999U 25231E   26257.60354572 -.00000100  00000-0  52583-4 0  9994
2 65999  50.0001 214.9351 0000358  41.0668 319.0231 13.29329617 44787

Suivez HULIANWANG DIGUI-91 en temps réel avec AllMySat

Download on the App Store